Вернуться в каталог

STARLINK-38268

АктивенСвязьSSO
NORAD 100321·PAYLOAD·🇺🇸 United States

Запущен Aug 12, 2026 с Vandenberg Space Force Base

Loading…

Ближайшие Пролёты (ближайшие 24 часа)

TLE

СвежийSource: Space-Track

Эпоха: Sep 14, 2026, 15:12 UTC

1 A0321U 26184W   26257.63350618  .00008970  00000-0  25017-3 0  9993
2 A0321  97.2837 122.8715 0002069  96.4659 263.6821 15.36981042  6469

Отслеживайте STARLINK-38268 в реальном времени с AllMySat

Download on the App Store